Theta_e
304 304 304 305 309 307 306 307 304 302 306 306 308 302 306 303 300 302 304 304 303 303 302 303 303 305 307 307 307 307 307 309 309 314 316 318 317 314 318 320 322 322 321 322 322 322 322
304 304 304 305 307 308 307 308 306 304 304 306 306 308 301 305 301 299 302 303 302 302 301 302 305 306 307 306 306 306 307 309 310 313 315 317 316 315 317 319 322 322 321 323 323 323 323
305 304 304 304 305 306 306 306 305 306 305 305 306 306 307 301 301 300 299 301 302 301 301 300 303 303 306 306 305 307 308 311 309 311 316 316 315 316 318 319 321 320 323 322 322 322 323
308 304 304 304 304 307 307 307 306 304 304 306 304 305 305 305 301 300 301 301 299 300 300 300 301 302 303 304 306 306 307 311 309 310 314 316 314 316 317 318 318 319 322 325 323 321 322
310 304 305 304 305 306 306 307 306 305 305 305 305 303 304 304 305 300 301 302 299 300 300 302 303 304 303 305 306 305 306 312 310 310 314 316 315 316 316 315 316 317 319 320 323 321 322
313 306 304 304 303 305 306 306 305 305 305 304 304 304 302 304 304 304 301 303 301 300 301 303 303 303 303 302 305 304 306 311 313 311 315 316 315 314 312 315 318 318 315 318 320 322 321
314 308 304 304 304 305 306 305 306 305 304 304 305 304 300 304 302 302 302 302 303 302 303 303 304 303 302 306 306 304 304 308 312 313 311 311 314 316 313 313 313 313 315 317 317 319 320
315 310 304 304 304 303 305 304 306 304 304 303 305 304 298 302 302 301 302 301 302 302 302 304 303 304 304 306 306 306 305 310 312 312 305 310 313 312 313 314 314 314 313 316 316 317 319
318 312 304 304 304 302 303 305 305 304 303 303 304 304 299 303 302 301 301 301 303 302 304 305 304 305 306 307 308 307 305 308 308 309 306 314 313 313 315 315 314 313 314 314 316 315 314
318 313 304 305 303 303 304 304 304 304 303 303 303 303 296 304 303 302 303 303 302 303 304 306 307 306 306 308 308 307 306 310 311 309 310 312 313 314 315 317 313 316 312 312 314 316 318
318 312 306 304 303 303 302 303 304 303 303 303 303 299 296 304 304 303 303 303 302 304 310 307 307 306 307 308 308 308 307 310 310 311 311 312 315 314 315 316 314 314 310 311 313 312 313
317 310 306 303 303 302 300 303 303 302 303 301 297 295 301 305 305 304 304 301 305 298 309 308 306 307 307 308 308 309 308 310 311 312 312 313 312 312 313 311 312 309 310 310 309 309 311
315 309 306 303 304 301 300 301 301 301 301 297 296 301 304 305 306 304 304 304 301 304 306 309 309 307 307 309 309 310 310 309 313 313 314 313 314 311 311 313 311 311 311 310 311 309 311
312 309 304 304 302 300 300 300 300 298 296 297 301 305 305 305 306 305 305 301 302 307 312 308 307 308 308 309 308 308 310 312 311 313 312 317 314 313 310 311 311 312 311 310 315 313 311
311 308 304 304 300 300 300 300 299 295 296 299 305 307 306 305 306 305 305 295 300 299 308 311 309 311 309 311 309 308 309 311 312 311 313 315 315 311 310 311 311 312 309 306 304 302 303
310 306 305 302 300 300 300 300 298 295 299 303 307 307 307 306 306 306 303 304 303 305 308 310 314 312 313 312 308 309 309 311 313 310 309 309 315 313 312 312 311 310 308 314 304 306 311
309 305 305 301 300 300 300 300 298 295 301 306 307 308 307 306 306 306 298 302 306 309 310 310 310 310 313 312 311 312 310 312 312 310 308 308 311 314 314 314 313 311 309 308 308 305 308
308 305 303 300 300 300 300 300 299 296 299 308 308 306 307 307 308 305 299 305 310 310 310 309 308 309 309 312 312 309 311 312 312 310 311 309 309 314 316 313 311 311 311 309 308 308 304
306 306 302 300 300 300 300 300 300 299 296 306 307 307 307 307 308 303 304 310 310 309 309 308 309 308 308 308 310 309 309 309 312 310 310 309 310 313 312 313 312 315 313 310 307 304 305
306 306 301 300 300 300 300 300 300 301 297 305 306 301 306 307 307 307 309 309 311 310 309 308 308 307 308 308 306 309 309 310 311 311 311 309 307 307 310 308 310 312 314 312 310 314 315
306 303 301 300 300 300 300 300 300 301 298 303 304 302 302 301 306 305 307 309 311 311 309 309 309 308 309 309 309 309 308 308 309 311 310 309 306 305 307 308 309 310 311 313 314 313 314
306 302 301 301 300 300 299 300 300 300 301 299 301 301 303 301 302 305 304 308 310 310 310 310 311 308 308 309 308 309 308 307 308 307 307 305 306 303 303 307 309 309 308 310 312 313 313
305 301 301 301 300 300 299 299 300 299 300 299 300 302 301 298 300 308 301 305 303 305 309 310 311 309 308 308 309 308 307 306 306 306 306 305 301 299 302 304 306 306 307 307 309 311 312
302 301 301 301 300 300 299 299 299 299 299 299 298 296 299 297 296 298 299 301 302 302 308 309 310 309 310 310 309 307 306 305 306 304 305 303 302 298 299 302 303 305 304 305 306 307 309
301 301 301 301 300 300 299 299 299 299 299 298 298 298 296 295 294 295 298 299 302 303 305 309 306 307 310 309 306 307 306 308 308 306 306 303 302 301 302 302 303 306 307 306 306 307 304
301 301 301 301 300 299 299 299 299 298 298 296 296 298 298 295 295 296 295 297 296 297 304 304 305 308 308 306 307 308 307 307 309 309 306 306 305 304 305 306 308 304 308 306 305 307 306
301 301 301 301 300 299 299 299 299 298 298 297 296 296 297 296 295 296 294 295 295 295 297 299 298 304 307 304 309 308 306 306 309 308 309 309 309 307 307 308 307 304 305 307 310 307 309
301 301 301 301 299 298 298 299 299 298 297 297 296 295 296 296 295 295 295 296 295 295 295 296 301 302 302 305 307 305 306 304 305 305 306 307 306 307 308 309 305 305 309 310 307 310 310
301 301 301 299 299 299 298 298 298 297 297 297 296 295 296 296 295 295 295 295 296 295 295 295 297 300 300 305 304 304 305 305 302 306 302 306 304 306 305 305 304 306 308 309 308 308 310
Wind_Speed
18 19 19 20 18 20 18 20 20 16 13 14 24 20 17 16 16 13 11 10 8 7 8 7 3 1 8 6 7 5 6 6 20 18 21 17 22 15 6 10 15 5 15 19 19 12 5
18 19 19 19 19 19 19 20 21 21 17 15 14 22 18 14 14 13 10 6 7 7 7 5 6 1 7 2 9 14 9 6 21 20 25 21 18 18 8 6 11 11 12 17 19 16 10
19 19 19 19 18 19 20 19 19 21 22 18 16 11 19 15 12 11 9 7 5 6 4 3 5 5 2 5 3 4 9 7 26 22 27 24 13 20 5 3 14 7 10 8 11 13 3
19 19 20 19 18 18 19 18 21 19 18 23 19 16 13 14 12 9 10 7 5 5 4 3 0 1 1 6 4 2 9 7 26 21 26 24 15 22 4 7 8 4 4 5 5 13 6
19 19 20 21 19 17 19 19 21 21 21 19 21 18 16 9 11 9 6 7 4 3 2 3 3 4 2 6 4 4 9 7 24 21 24 21 18 10 4 8 3 3 5 5 5 15 8
21 20 19 22 20 17 19 20 20 21 20 21 20 20 16 12 8 7 5 5 3 1 1 2 3 3 4 7 4 2 4 4 17 20 10 12 8 4 3 7 14 7 5 4 7 12 7
21 20 19 21 22 19 19 21 21 21 21 21 21 19 17 13 8 6 5 5 3 1 1 1 2 2 3 4 2 1 3 2 13 18 2 15 2 14 7 5 1 8 5 5 2 9 6
23 22 19 21 22 21 20 22 22 21 21 22 21 21 17 11 8 4 3 2 1 2 1 1 3 3 2 2 3 4 3 3 4 6 6 2 7 6 6 7 6 6 7 5 1 6 6
25 23 20 21 23 22 24 22 22 20 21 22 21 21 19 12 6 5 2 2 1 5 1 2 0 1 2 2 3 3 3 9 10 5 5 3 7 9 6 5 7 3 7 4 6 4 2
26 23 20 23 24 25 23 21 22 22 22 22 21 19 17 8 4 6 3 4 0 4 2 3 2 1 1 2 4 4 3 4 4 5 6 3 3 8 7 5 5 4 4 5 7 6 5
23 22 21 23 25 25 22 21 21 23 22 22 22 19 11 5 2 5 3 3 1 1 0 2 1 1 3 4 6 4 4 4 6 7 2 1 4 10 7 7 4 3 5 6 3 4 3
22 20 21 22 24 24 23 22 22 23 23 22 18 14 6 3 6 5 5 2 2 5 2 3 1 1 2 1 2 6 3 8 5 5 4 3 1 3 4 4 5 7 6 6 4 3 1
19 19 19 21 23 23 23 22 22 22 22 20 14 6 2 4 3 8 5 3 3 4 3 5 3 3 2 1 2 2 3 2 2 3 2 3 2 2 3 6 3 3 6 3 3 2 4
16 17 17 20 22 22 22 22 21 21 21 16 7 5 5 4 6 7 6 3 6 3 2 5 5 4 1 3 4 2 4 3 1 2 3 2 3 2 4 3 6 3 4 4 4 3 3
14 16 16 19 19 20 22 21 20 20 16 10 3 6 5 5 6 5 0 4 5 5 1 4 6 4 1 2 3 4 3 1 4 2 3 3 3 1 4 2 2 3 3 4 6 3 3
13 14 15 16 17 19 20 20 19 19 14 5 8 5 4 5 7 5 2 2 1 3 4 5 3 3 4 7 6 6 6 2 3 3 1 3 5 2 2 2 5 3 7 2 3 2 3
12 12 14 14 15 17 19 19 19 18 12 5 8 2 3 6 7 2 1 4 3 4 3 2 1 4 4 6 5 5 9 1 4 4 3 3 3 2 2 3 6 2 1 3 4 4 4
11 12 12 11 14 16 16 18 19 17 10 6 3 1 3 7 2 1 2 3 2 3 1 1 1 3 4 6 4 5 7 1 10 10 5 2 4 3 1 2 3 2 3 4 4 3 1
12 10 9 9 12 13 13 16 18 15 10 3 1 2 4 5 1 2 4 1 1 4 4 4 4 4 3 3 4 1 2 3 14 4 6 6 3 4 2 2 2 3 4 3 3 3 7
13 10 6 7 11 11 11 14 16 14 10 3 0 1 2 4 3 2 1 2 2 3 2 3 2 3 3 5 6 3 2 2 3 5 8 4 3 5 6 4 3 5 8 10 4 5 6
13 8 3 6 9 9 10 12 13 13 9 2 0 1 2 1 2 3 1 1 1 2 3 10 4 4 1 3 3 3 3 4 6 4 4 2 3 3 4 4 5 3 5 12 14 16 12
12 9 2 5 7 8 9 10 11 12 6 4 1 2 2 0 3 1 4 5 4 4 5 4 4 5 3 4 2 4 4 2 4 2 3 2 1 2 4 3 2 4 7 9 19 21 15
13 9 3 3 6 7 8 10 11 10 8 6 3 3 0 4 3 1 2 3 4 4 5 7 3 3 6 3 4 3 4 2 3 7 3 3 4 3 3 3 3 7 13 12 5 7 15
14 9 5 1 4 5 7 10 10 11 11 10 6 2 1 2 3 3 3 3 5 6 2 5 10 3 2 7 2 4 9 8 6 5 5 5 4 2 2 2 0 6 2 6 12 14 14
16 11 7 2 2 3 6 8 10 10 11 11 10 4 2 3 2 4 8 4 4 4 4 3 7 7 5 2 3 3 4 2 1 2 2 3 4 2 3 2 7 3 1 4 5 5 5
17 12 7 4 2 3 6 7 8 10 10 9 11 7 4 7 3 2 2 5 2 3 2 3 3 8 3 2 3 2 2 3 1 1 3 3 4 3 2 1 4 4 2 3 4 4 3
19 12 9 5 4 5 6 6 7 7 9 9 13 8 5 7 6 4 3 2 3 3 1 3 8 8 10 2 2 1 1 2 2 4 3 3 2 4 4 3 6 6 4 4 2 4 11
19 14 9 7 8 8 7 7 7 9 9 8 13 8 6 7 8 8 6 4 4 4 2 8 2 6 5 3 2 1 1 1 2 2 4 6 4 4 1 2 6 3 0 2 4 10 14
19 15 13 11 9 6 5 6 9 9 9 10 14 12 13 9 9 10 13 12 3 2 2 3 3 2 1 1 2 1 2 2 1 2 1 2 4 1 6 5 4 4 9 13 18 23 21
Wind_Direction
341 345 350 348 347 350 351 346 348 343 337 344 338 347 348 354 357 2 6 18 20 17 7 5 344 293 181 182 228 262 38 226 207 204 210 188 182 195 195 182 182 195 181 193 215 202 227
336 340 345 344 345 346 352 347 348 349 344 337 336 338 344 347 350 358 5 13 10 15 14 33 32 150 199 237 253 275 301 266 209 205 200 193 188 186 217 184 188 197 171 156 168 158 181
331 334 337 340 340 344 348 347 344 343 347 340 333 328 338 331 338 352 352 0 351 346 1 40 25 151 209 250 299 221 309 236 205 215 192 193 181 190 181 132 198 165 156 150 154 142 140
330 328 332 335 338 340 340 345 347 346 342 335 336 331 313 333 325 326 338 340 328 330 341 3 250 38 228 0 206 330 348 200 186 207 195 191 181 189 199 149 117 142 142 167 162 162 125
326 324 328 330 334 337 338 340 342 339 340 338 330 328 322 318 327 307 321 341 322 319 360 40 32 352 25 28 136 40 3 177 180 184 190 185 182 188 158 132 86 207 162 155 161 186 148
324 322 324 325 330 333 334 336 337 334 334 334 331 327 322 319 305 313 300 294 1 331 118 345 359 359 38 343 340 66 12 63 168 160 165 170 176 151 138 170 193 160 108 182 158 191 168
318 321 320 324 326 330 332 330 333 331 330 329 330 328 328 315 302 292 302 305 283 275 287 78 3 331 343 42 61 106 32 359 143 152 88 136 239 195 156 118 173 121 111 150 99 172 155
315 318 317 322 325 327 328 332 329 328 327 327 329 328 324 309 297 267 294 286 149 62 322 16 301 308 354 357 61 56 79 105 165 124 43 142 220 165 147 98 121 112 124 169 90 150 152
311 314 316 321 324 327 331 328 327 329 326 327 326 327 321 316 271 227 226 182 121 14 19 320 6 344 101 95 66 26 58 103 118 83 164 189 162 146 135 110 115 44 138 156 156 98 15
304 311 314 319 324 334 332 328 329 331 329 327 324 324 319 320 268 209 214 196 109 349 75 170 177 62 111 103 57 95 84 108 100 118 132 3 305 134 141 124 123 116 171 130 143 131 189
299 308 313 319 330 334 334 332 334 331 332 329 323 317 320 263 200 181 198 211 325 72 7 113 41 149 85 77 136 39 70 32 98 138 158 174 187 145 156 172 117 143 147 119 98 93 110
300 305 313 320 332 334 336 333 330 333 332 328 319 315 302 230 214 194 160 158 83 45 13 106 66 200 78 47 104 135 91 51 133 105 90 73 98 77 161 160 109 166 91 60 71 93 343
294 304 312 322 332 333 333 336 338 337 336 333 325 324 208 147 160 161 160 144 36 77 191 136 119 189 225 102 90 103 74 86 153 122 76 46 51 79 60 100 56 74 80 37 28 12 223
291 302 312 324 329 332 337 340 340 341 339 342 341 97 125 137 131 152 152 62 71 241 3 95 122 131 151 163 66 79 150 142 172 109 108 119 123 45 359 114 159 166 130 146 166 195 242
289 298 315 323 329 336 341 344 349 349 344 349 120 109 113 128 143 159 264 52 195 198 184 105 134 158 182 260 126 149 237 190 169 202 117 108 63 57 38 359 92 214 151 163 106 25 46
282 296 313 322 332 340 346 349 352 351 349 16 151 121 107 141 147 161 56 265 230 220 141 138 226 189 143 168 145 175 200 208 142 147 159 168 112 29 98 59 25 129 157 79 9 126 269
275 291 311 321 337 341 346 354 355 355 357 122 157 143 112 149 154 139 175 245 273 252 180 175 162 149 119 154 177 164 189 168 162 132 104 132 76 43 133 169 171 102 124 71 123 137 182
265 284 307 323 344 343 351 358 357 354 3 152 178 110 144 148 223 40 225 209 357 346 35 305 27 76 144 171 144 184 188 180 180 157 128 151 110 122 44 12 46 79 172 160 137 228 204
252 278 293 333 344 346 358 1 1 355 352 170 134 125 157 179 293 283 288 259 7 32 5 25 30 26 52 100 102 80 107 326 158 141 151 175 130 116 27 324 6 222 181 205 109 86 198
243 266 284 337 340 352 2 1 356 357 353 155 145 95 163 211 258 244 344 359 101 50 58 12 29 47 60 47 26 121 95 75 135 81 90 96 129 160 182 193 134 190 204 201 168 223 239
234 250 274 328 339 2 8 7 357 2 360 143 182 206 163 206 279 331 282 331 348 89 28 21 33 42 25 99 57 89 65 57 37 80 64 118 156 151 235 200 159 220 227 205 211 230 227
226 230 233 314 345 5 9 6 360 6 15 60 149 125 152 7 269 231 357 8 47 351 28 8 54 11 44 84 52 186 127 149 178 137 144 1 229 72 335 343 233 269 246 226 227 237 251
216 210 205 304 358 9 10 11 16 23 36 69 69 98 274 347 334 87 44 37 12 322 55 53 307 93 50 23 327 329 267 237 179 145 137 129 130 83 270 355 352 293 238 217 212 230 229
205 186 204 264 23 20 14 17 27 29 40 60 65 105 80 357 51 37 10 16 10 347 36 21 23 73 348 327 73 87 63 106 100 65 130 129 104 87 215 26 311 242 188 193 213 241 231
194 181 199 186 63 34 33 35 34 34 42 51 53 79 77 88 4 31 25 352 24 9 35 74 32 349 330 82 63 44 354 45 71 141 127 127 122 101 136 204 290 331 114 143 174 280 226
186 185 192 162 134 79 63 61 49 55 48 49 52 64 91 123 26 341 13 21 47 348 35 29 355 21 18 82 87 124 197 215 217 105 86 126 103 116 153 174 252 248 311 206 149 297 234
181 186 191 166 143 97 81 84 70 61 52 58 52 47 106 100 43 51 71 19 24 26 344 344 339 7 11 50 87 123 275 218 153 182 172 157 184 182 216 246 287 252 285 157 77 254 311
179 188 186 160 129 104 97 92 84 60 62 60 42 56 119 96 70 59 57 45 42 47 44 339 340 9 14 62 78 127 107 316 346 217 187 180 162 215 169 206 286 213 80 165 237 312 322
180 183 169 155 132 119 98 86 93 71 75 64 63 86 101 91 111 87 58 47 107 50 26 38 128 57 27 348 64 31 31 33 316 283 14 270 191 209 187 219 260 318 287 287 316 309 307